STARLINK-2004 (47599 NORAD) Tracking and Keplerian Element Data
This shows tracking and keplerian element data for the satellite.
Feedback or suggestion? Click here.
Element | Value |
Catalog | 47599 |
Name | STARLINK-2004 |
Epoch Orbit | 454 |
Epoch Day | 60.16668981 |
Epoch Year | 2021 |
RAAN | 1.7003 |
Inclination | 53.0542 |
Eccentricity | 0.0001169 |
Argument of Perigee | 57.3936 |
Mean Anonmoly | 265.1505 |
Mean Motion | 15.62742058 |
Decay Rate | 0.00011969 |
L1 | 1 47599U 21009BD 21060.16668981 .00011969 00000-0 13641-3 0 9994 |
L2 | 2 47599 53.0542 1.7003 0001169 57.3936 265.1505 15.62742058 4543 |
Live tracking and technical data element details for STARLINK-2004 (NORAD 47599). STARLINK-2004 can be tracked NOW for your location showing map with azimuth and elevation plus other details from your city location.
Track the satellite on the map from your city or location and see movement details for azimuth, elevation, latitude, longitude, range, height, and movement on the map or in text.
IsCatalogInMostPopularTable: catalog: 47599, numindb: 4
Update: records affected: 1
GetName: 47599 STARLINK-2004
Hit Count: updated at: Mon, 01 Mar 2021 16:04:11 GMT